FW2905 Weather Reports


Display with metric or nautical units.
time (UTC)temp
F
wind
direction
speed
MPH
gust
MPH
rain 1hr
in
rain 24hr
in
rain mn
in
humidity
%
barometer
mb
20260504004540 64 223 3.0 7.0 0.00 0.00 0.00 45 1004.3
20260504004014 64 195 4.0 8.0 0.00 0.00 0.00 45 1004.2
20260504003514 65 222 4.0 9.0 0.00 0.00 0.00 45 1004.4
20260504003030 65 251 3.0 11.0 0.00 0.00 0.00 45 1004.3
20260504002514 65 243 4.0 11.0 0.00 0.00 0.00 45 1004.3
20260504002017 65 233 5.0 11.0 0.00 0.00 0.00 44 1004.2
20260504001530 65 290 3.0 12.0 0.00 0.00 0.00 44 1004.2
20260504001017 65 256 6.0 14.0 0.00 0.00 0.00 44 1004.1
20260504000517 66 250 5.0 14.0 0.00 0.00 0.00 43 1004.0
20260504000029 66 271 6.0 12.0 0.00 0.00 0.00 43 1004.0
20260503235513 66 254 7.0 12.0 0.00 0.00 0.00 43 1004.0
20260503235015 66 234 5.0 12.0 0.00 0.00 0.00 43 1003.9
20260503234532 66 227 7.0 15.0 0.00 0.00 0.00 43 1003.9
20260503234015 66 252 5.0 15.0 0.00 0.00 0.00 42 1003.9
20260503233514 66 250 4.0 15.0 0.00 0.00 0.00 43 1004.0
20260503233031 66 275 7.0 15.0 0.00 0.00 0.00 42 1004.2
20260503232515 66 283 7.0 18.0 0.00 0.00 0.00 43 1004.2
20260503232015 66 277 9.0 18.0 0.00 0.00 0.00 42 1004.2
20260503231533 66 294 9.0 18.0 0.00 0.00 0.00 41 1004.3
20260503231015 67 285 7.0 18.0 0.00 0.00 0.00 42 1004.3
20260503230517 67 315 10.0 18.0 0.00 0.00 0.00 41 1004.3
20260503230030 67 275 8.0 18.0 0.00 0.00 0.00 41 1004.3
20260503225517 67 251 7.0 15.0 0.00 0.00 0.00 42 1004.2
20260503225018 67 252 7.0 16.0 0.00 0.00 0.00 41 1004.1
20260503224535 66 306 8.0 18.0 0.00 0.00 0.00 41 1004.1
20260503224018 67 233 9.0 18.0 0.00 0.00 0.00 41 1003.9
20260503223516 67 253 8.0 18.0 0.00 0.00 0.00 41 1004.3
20260503223037 67 243 5.0 18.0 0.00 0.00 0.00 42 1004.4
20260503222515 66 288 9.0 22.0 0.00 0.00 0.00 41 1004.4
20260503222017 67 243 8.0 22.0 0.00 0.00 0.00 42 1004.3
20260503221536 67 324 8.0 18.0 0.00 0.00 0.00 42 1004.4
20260503221015 66 217 9.0 19.0 0.00 0.00 0.00 42 1004.4
20260503220515 66 217 11.0 19.0 0.00 0.00 0.00 42 1004.4
20260503220039 66 239 10.0 19.0 0.00 0.00 0.00 42 1004.4
20260503215514 66 247 12.0 19.0 0.00 0.00 0.00 42 1004.4
20260503215015 66 236 10.0 20.0 0.00 0.00 0.00 41 1004.5
20260503214533 66 219 11.0 20.0 0.00 0.00 0.00 42 1004.5
20260503214015 66 254 10.0 21.0 0.00 0.00 0.00 42 1004.5
20260503213519 66 252 11.0 22.0 0.00 0.00 0.00 41 1004.5
20260503213037 66 250 11.0 23.0 0.00 0.00 0.00 41 1004.5
20260503212516 67 261 7.0 23.0 0.00 0.00 0.00 41 1004.6
20260503212018 66 238 9.0 23.0 0.00 0.00 0.00 42 1004.7
20260503211539 66 257 9.0 23.0 0.00 0.00 0.00 41 1004.7
20260503211019 66 242 11.0 23.0 0.00 0.00 0.00 42 1004.8
20260503210515 66 265 11.0 23.0 0.00 0.00 0.00 42 1004.8
20260503210034 66 236 7.0 23.0 0.00 0.00 0.00 43 1004.8
20260503205522 65 242 14.0 28.0 0.00 0.00 0.00 43 1004.8
20260503205016 65 323 13.0 28.0 0.00 0.00 0.00 43 1005.0
20260503204535 65 260 13.0 28.0 0.00 0.00 0.00 45 1005.0
20260503204015 66 238 7.0 27.0 0.00 0.00 0.00 45 1005.2
20260503203515 65 235 14.0 27.0 0.00 0.00 0.00 45 1005.2
20260503203036 65 214 8.0 24.0 0.00 0.00 0.00 44 1005.4
20260503202515 65 227 10.0 23.0 0.00 0.00 0.00 43 1005.6
20260503202017 65 234 9.0 25.0 0.00 0.00 0.00 44 1005.6
20260503201535 64 231 10.0 29.0 0.00 0.00 0.00 45 1005.7
20260503201048 64 316 12.0 29.0 0.00 0.00 0.00 44 1006.0
20260503200518 65 189 12.0 23.0 0.00 0.00 0.00 44 1005.9
20260503200038 64 276 13.0 26.0 0.00 0.00 0.00 43 1006.3
20260503195519 64 240 13.0 26.0 0.00 0.00 0.00 43 1006.4
20260503195018 65 275 11.0 28.0 0.00 0.00 0.00 43 1006.2
20260503194541 64 242 12.0 29.0 0.00 0.00 0.00 42 1006.2
20260503194018 65 275 13.0 29.0 0.00 0.00 0.00 40 1006.3
20260503193518 65 317 12.0 27.0 0.00 0.00 0.00 42 1006.1
20260503193040 65 289 11.0 27.0 0.00 0.00 0.00 41 1006.4
20260503192517 65 220 13.0 27.0 0.00 0.00 0.00 41 1006.3
20260503192018 65 224 10.0 22.0 0.00 0.00 0.00 42 1006.4
20260503191536 64 232 12.0 26.0 0.00 0.00 0.00 43 1006.5
20260503191018 64 201 10.0 29.0 0.00 0.00 0.00 44 1006.5
20260503190517 63 240 14.0 29.0 0.00 0.00 0.00 44 1006.5
20260503190041 63 248 16.0 30.0 0.00 0.00 0.00 43 1006.4
20260503185515 63 281 14.0 31.0 0.00 0.00 0.00 43 1006.7
20260503185016 63 207 15.0 31.0 0.00 0.00 0.00 44 1006.8
20260503184534 63 290 14.0 26.0 0.00 0.00 0.00 46 1006.8
20260503184018 63 215 14.0 26.0 0.00 0.00 0.00 44 1006.8
20260503183517 63 205 12.0 26.0 0.00 0.00 0.00 44 1006.9
20260503183030 63 254 11.0 33.0 0.00 0.00 0.00 45 1006.9
20260503182523 62 221 11.0 33.0 0.00 0.00 0.00 45 1007.1
20260503182021 62 236 16.0 28.0 0.00 0.00 0.00 44 1007.2
20260503181538 63 250 12.0 26.0 0.00 0.00 0.00 45 1007.2
20260503181018 62 267 10.0 27.0 0.00 0.00 0.00 48 1007.3
20260503180518 61 253 15.0 27.0 0.00 0.00 0.00 47 1007.3
20260503180034 61 223 13.0 24.0 0.00 0.00 0.00 47 1007.4
20260503175516 61 272 11.0 25.0 0.00 0.00 0.00 48 1007.5
20260503175018 61 198 13.0 25.0 0.00 0.00 0.00 47 1007.6
20260503174552 61 213 10.0 21.0 0.00 0.00 0.00 49 1007.4
20260503174018 61 153 13.0 21.0 0.00 0.00 0.00 49 1007.7
20260503173519 60 219 11.0 22.0 0.00 0.00 0.00 49 1007.7
20260503173034 60 207 13.0 25.0 0.00 0.00 0.00 51 1008.0
20260503172517 59 210 12.0 25.0 0.00 0.00 0.00 50 1008.0
20260503172018 59 234 11.0 23.0 0.00 0.00 0.00 51 1008.1
20260503171530 59 197 8.0 20.0 0.00 0.00 0.00 55 1008.2
20260503171016 58 198 11.0 20.0 0.00 0.00 0.00 55 1008.3
20260503170515 57 195 9.0 25.0 0.00 0.00 0.00 57 1008.4
20260503150515 56 229 12.0 21.0 0.00 0.00 0.00 52 1009.4
20260503131018 52 213 7.0 16.0 0.00 0.00 0.00 53 1010.7
20260503130516 51 259 9.0 19.0 0.00 0.00 0.00 53 1010.8
20260503110521 49 139 5.0 15.0 0.00 0.00 0.00 51 1010.8
20260503081544 48 182 5.0 12.0 0.00 0.00 0.00 51 1011.6
20260503081014 48 236 6.0 12.0 0.00 0.00 0.00 51 1011.6
20260503080515 48 239 6.0 11.0 0.00 0.00 0.00 50 1011.6
20260503072515 48 172 4.0 8.0 0.00 0.00 0.00 52 1012.0
20260503072012 48 196 5.0 8.0 0.00 0.00 0.00 52 1012.0
20260503071538 48 221 3.0 7.0 0.00 0.00 0.00 52 1012.0
20260503071015 48 207 3.0 8.0 0.00 0.00 0.00 52 1012.0
20260503070515 48 192 4.0 9.0 0.00 0.00 0.00 52 1012.0
20260503055014 46 222 3.0 8.0 0.00 0.00 0.00 55 1012.7
20260503054535 45 205 3.0 9.0 0.00 0.00 0.00 56 1012.8
20260503054018 45 183 3.0 9.0 0.00 0.00 0.00 58 1012.8
20260503053515 44 207 2.0 4.0 0.00 0.00 0.00 60 1012.8
20260503053033 44 238 1.0 3.0 0.00 0.00 0.00 61 1012.9
20260503052515 44 229 2.0 4.0 0.00 0.00 0.00 62 1012.9
20260503052022 44 205 2.0 4.0 0.00 0.00 0.00 62 1013.0
20260503051530 44 215 2.0 4.0 0.00 0.00 0.00 62 1013.0
20260503051015 44 209 2.0 6.0 0.00 0.00 0.00 63 1013.0
20260503050516 43 202 2.0 7.0 0.00 0.00 0.00 63 1013.1
20260503050031 43 204 3.0 7.0 0.00 0.00 0.00 63 1013.2
20260503045519 43 214 2.0 5.0 0.00 0.00 0.00 64 1013.0
20260503045015 43 216 2.0 5.0 0.00 0.00 0.00 65 1013.2
20260503044541 43 194 3.0 5.0 0.00 0.00 0.00 66 1013.3
20260503044018 42 198 2.0 5.0 0.00 0.00 0.00 66 1013.3
20260503043520 42 194 2.0 3.0 0.00 0.00 0.00 67 1013.3
20260503043035 42 200 1.0 3.0 0.00 0.00 0.00 66 1013.3
20260503042518 43 210 1.0 3.0 0.00 0.00 0.00 66 1013.4
20260503042015 43 221 1.0 3.0 0.00 0.00 0.00 66 1013.4
20260503041536 43 216 1.0 3.0 0.00 0.00 0.00 66 1013.5
20260503041018 43 219 2.0 3.0 0.00 0.00 0.00 65 1013.4
20260503040517 43 213 1.0 4.0 0.00 0.00 0.00 66 1013.4
20260503040035 43 223 1.0 4.0 0.00 0.00 0.00 66 1013.5
20260503035515 43 209 2.0 4.0 0.00 0.00 0.00 66 1013.5
20260503035016 42 202 2.0 4.0 0.00 0.00 0.00 67 1013.6
20260503034550 43 181 1.0 5.0 0.00 0.00 0.00 67 1013.7
20260503034015 43 181 2.0 5.0 0.00 0.00 0.00 66 1013.7
20260503033516 43 188 2.0 6.0 0.00 0.00 0.00 66 1013.7
20260503033035 43 214 3.0 7.0 0.00 0.00 0.00 67 1013.8
20260503032515 43 193 3.0 7.0 0.00 0.00 0.00 67 1013.9
20260503032015 43 221 3.0 6.0 0.00 0.00 0.00 67 1013.8
20260503031533 42 202 2.0 5.0 0.00 0.00 0.00 67 1013.9
20260503031015 42 200 1.0 5.0 0.00 0.00 0.00 68 1013.9
20260503030517 42 181 1.0 5.0 0.00 0.00 0.00 69 1014.1
20260503030031 42 186 2.0 5.0 0.00 0.00 0.00 69 1014.1
20260503025518 42 178 2.0 5.0 0.00 0.00 0.00 70 1014.2
20260503025015 42 188 2.0 5.0 0.00 0.00 0.00 71 1014.2
20260503024535 41 183 2.0 5.0 0.00 0.00 0.00 72 1014.2
20260503024018 41 169 2.0 5.0 0.00 0.00 0.00 73 1014.2
20260503023519 41 158 3.0 6.0 0.00 0.00 0.00 74 1014.2
20260503023035 41 163 3.0 6.0 0.00 0.00 0.00 74 1014.2
20260503022516 41 167 4.0 6.0 0.00 0.00 0.00 73 1014.3
20260503022015 41 173 3.0 6.0 0.00 0.00 0.00 73 1014.3
20260503021535 42 166 3.0 7.0 0.00 0.00 0.00 73 1014.4
20260503021015 42 148 4.0 7.0 0.00 0.00 0.00 73 1014.4
20260503020518 42 152 3.0 6.0 0.00 0.00 0.00 73 1014.4
20260503020031 42 153 3.0 6.0 0.00 0.00 0.00 72 1014.3
20260503015515 42 161 3.0 6.0 0.00 0.00 0.00 72 1014.3
20260503015015 42 150 3.0 7.0 0.00 0.00 0.00 72 1014.2
20260503014535 42 144 4.0 7.0 0.00 0.00 0.00 71 1014.2
20260503014015 42 154 3.0 7.0 0.00 0.00 0.00 71 1014.1
20260503013516 42 160 2.0 7.0 0.00 0.00 0.00 71 1014.1
20260503013030 43 148 3.0 7.0 0.00 0.00 0.00 70 1014.0
20260503012516 43 157 3.0 7.0 0.00 0.00 0.00 70 1014.1
20260503012019 43 153 3.0 7.0 0.00 0.00 0.00 69 1014.0
20260503011532 43 157 3.0 5.0 0.00 0.00 0.00 69 1014.1
20260503011015 43 144 3.0 6.0 0.00 0.00 0.00 68 1014.1
20260503010515 44 146 2.0 7.0 0.00 0.00 0.00 68 1014.1
20260503010030 44 158 3.0 9.0 0.00 0.00 0.00 67 1014.1
20260503005515 44 140 3.0 9.0 0.00 0.00 0.00 66 1014.2
20260503005019 44 163 4.0 8.0 0.00 0.00 0.00 66 1014.2